Location: São Paulo
(23.5507°S, 46.6334°W)
Time: 13:10:43
(UTC-03:00)

Tiros 1 - Pass Details

Date: 13 February 2026
Orbit: 618 x 649 km, 48.4° (Epoch: 11 March)

Event Time Altitude Azimuth Distance (km) Brightness Sun altitude
Rises 06:32:59 0° 237° (WSW) 2,970 10.1 8.0°
Reaches altitude 10° 06:35:31 10° 246° (WSW) 2,050 9.3 8.6°
Maximum altitude 06:39:43 32° 309° (NW) 1,094 8.0 9.5°
Drops below altitude 10° 06:43:53 10° 12° (NNE) 2,016 9.8 10.5°
Sets 06:46:21 0° 22° (NNE) 2,912 10.7 11.0°
